[[{"header":{"parameterUnit":"m.s-1","parameterCategory":1,"la1":30.2991,"la2":30.254,"lo1":-89.0895,"lo2":-89.0444,"dy":0.0017,"dx":0.0017,"nx":28,"ny":28,"refTime":"2026-02-04T03:00:00:Z","depth":0,"parameterNumber":2,"parameterNumberName":"U-component_of_WINDS"},"data":[0,0,0,0,0,0,0,0,0,0,0,0,0,0,0,0,0,0,0,0,0,0,0,0,0,0,0,0,0,0,0,0,0,0,0,0,0,0,0,0,0,0,0,0,0,0,0,0,0,0,0,0,0,0,0,0,0,0,4.0603,4.0603,0,4.0651,4.0651,4.0652,4.0618,4.0617,4.0615,4.0614,4.0662,4.0665,4.0667,0,0,0,0,0,0,0,0,0,0,0,0,0,4.0484,4.0486,4.0603,4.0604,4.0604,4.0651,4.0651,4.0652,4.0619,4.0617,4.0615,4.0613,4.0661,4.0664,4.0668,0,0,0,0,0,0,0,0,0,0,0,0,0,4.0534,4.0487,4.0603,4.0593,4.0593,4.0651,4.0651,4.0652,4.0619,4.0617,4.0615,4.0613,4.066,4.0664,4.0668,4.0738,0,0,4.068,4.0682,0,0,0,0,0,0,0,0,4.0531,4.0538,4.0594,4.0594,4.0594,4.0626,4.0627,4.0681,4.062,4.0609,4.0614,4.0611,4.0652,4.0657,4.067,4.074,4.0742,4.0681,4.0683,4.0685,4.0686,0,0,0,0,0,0,0,4.0528,4.0536,4.0622,4.0595,4.0595,4.0587,4.0591,4.0637,4.0642,4.061,4.0608,4.0614,4.0651,4.0667,4.0671,4.0743,4.0681,4.0684,4.0687,4.0688,4.0875,4.0878,0,0,0,0,0,0,4.0525,4.0533,4.062,4.0623,4.0556,4.0591,4.0596,4.0618,4.0642,4.0643,4.0616,4.0612,4.0661,4.0667,4.0673,4.0758,4.0685,4.0689,4.0691,4.0873,4.0876,4.0878,0,0,0,0,0,0,4.0523,4.0533,4.0618,4.0578,4.0588,4.0595,4.062,4.062,4.0635,4.0646,4.0647,4.063,4.0659,4.0667,4.0723,4.0759,4.069,4.0694,4.087,4.0874,4.0877,4.0928,0,0,0,0,0,0,4.0519,4.0532,4.0558,4.0579,4.059,4.0667,4.0623,4.0623,4.0643,4.0638,4.066,4.0662,4.0658,4.0717,4.0727,4.0763,4.0697,4.0866,4.0871,4.0876,4.0923,4.0933,4.0941,0,0,0,0,0,4.0515,4.057,4.056,4.0571,4.0623,4.0669,4.0676,4.0671,4.0646,4.0672,4.068,4.0661,4.0754,4.0723,4.0734,4.0772,4.0864,4.087,4.0876,4.0918,4.0931,4.0941,0,0,0,0,0,0,4.0553,4.0572,4.0561,4.0624,4.0646,4.0663,4.0697,4.0684,4.0712,4.0707,4.07,4.0705,4.0764,4.0773,4.0739,4.0842,4.0805,4.0813,4.0834,4.0845,4.0855,4.0851,4.07,0,0,0,0,0,4.0568,4.0604,4.0619,4.0673,4.0685,4.0689,4.0709,4.0704,4.0726,4.0734,4.0745,4.0767,4.0801,4.0824,4.0856,4.0924,4.0929,4.0956,4.0965,4.0973,4.098,4.1019,4.1032,4.0897,4.0897,4.0897,0,0,4.0601,4.0616,4.0639,4.0682,4.0697,4.0735,4.0697,4.0738,4.0766,4.074,4.0794,4.0803,4.0827,4.089,4.0918,4.09,4.1019,4.098,4.0986,4.0989,4.1027,4.1039,4.1051,4.0901,4.0901,4.09,0,0,4.068,4.0694,4.0742,4.076,4.0785,4.0788,4.08,4.082,4.0826,4.088,4.0862,4.0896,4.0954,4.0973,4.099,4.1079,4.1064,4.109,4.1138,4.1176,4.1187,4.1196,4.123,4.1242,4.1097,4.1097,4.1097,0,4.0717,4.0773,4.0768,4.0812,4.0832,4.0812,4.0861,4.0877,4.0912,4.0926,4.0905,4.098,4.0995,4.1063,4.1085,4.1099,4.1113,4.1087,4.1186,4.1195,4.1204,4.1236,4.1248,4.11,4.11,4.1099,4.1099,0,4.0819,4.0858,4.0894,4.0929,4.0953,4.0999,4.1002,4.1027,4.1021,4.1026,4.1083,4.11,4.1136,4.1152,4.1145,4.122,4.1208,4.1187,4.1149,4.122,4.125,4.1262,4.1105,4.1104,4.1103,4.1102,0,0,4.0921,4.0955,4.0968,4.0985,4.1012,4.1043,4.1089,4.1125,4.1148,4.1173,4.1212,4.1263,4.1245,4.1264,4.126,4.1294,4.1366,4.1269,4.1269,4.1287,4.1452,4.1468,4.1482,4.1356,4.1358,4.136,4.145,0,4.1002,4.1083,4.1081,4.1156,4.1194,4.1176,4.1217,4.1239,4.1246,4.1279,4.1287,4.1324,4.1296,4.1308,4.1341,4.135,4.1399,4.1344,4.1393,4.1395,4.1388,4.1497,4.1514,4.1598,4.1462,4.1464,4.1465,0,4.1108,4.1138,4.1217,4.1242,4.1257,4.1293,4.1328,4.136,4.1385,4.1388,4.1412,4.1403,4.1451,4.1412,4.1479,4.1442,4.1462,4.147,4.1473,4.1478,4.1434,4.1506,4.1625,4.1638,4.1483,4.1482,4.148,0,4.1176,4.1236,4.1292,4.1307,4.1336,4.1363,4.1376,4.1399,4.1422,4.1453,4.1468,4.1503,4.1523,4.1551,4.1552,4.1524,4.162,4.1581,4.1625,4.1625,4.1646,4.1645,4.1771,4.1658,4.1658,4.1658,4.1658,0,4.1268,4.1317,4.1324,4.1358,4.1414,4.1412,4.1467,4.1478,4.1499,4.1536,4.1523,4.1558,4.1558,4.1594,4.1595,4.1652,4.166,4.1665,4.1665,4.1666,4.1666,4.168,4.1674,4.1661,4.166,4.166,4.1659,0,4.1353,4.1359,4.1419,4.1443,4.1451,4.1491,4.1512,4.1545,4.1552,4.1599,4.161,4.1621,4.1663,4.1668,4.1716,4.1717,4.1786,4.1779,4.1778,4.1777,4.1821,4.1817,4.196,4.198,4.1854,4.1855,4.1856,0,4.1411,4.1449,4.1478,4.1502,4.1518,4.1557,4.1581,4.1581,4.1607,4.164,4.167,4.1711,4.1744,4.1812,4.1824,4.1862,4.1857,4.1905,4.1862,4.1864,4.1859,4.1857,4.1862,4.1913,4.1914,4.1915,4.1916,0,4.1514,4.1516,4.1551,4.1589,4.1618,4.1647,4.1674,4.1695,4.1699,4.1729,4.1772,4.1798,4.1849,4.189,4.1928,4.1942,4.1931,4.193,4.1942,4.1944,4.1942,4.1945,4.1801,4.1926,4.1925,4.1924,4.1924,4.1923,4.1589,4.1623,4.1649,4.169,4.1711,4.1737,4.177,4.1783,4.1819,4.1861,4.1859,4.1907,4.1934,4.1984,4.2001,4.204,4.2024,4.2041,4.2046,4.2051,4.2056,4.1936,4.2046,4.2046,4.2046,4.2046,4.2045,0,4.1693,4.1709,4.1747,4.1786,4.1819,4.1805,4.1836,4.1864,4.1907,4.1933,4.1966,4.2017,4.2058,4.2075,4.2115,4.2143,4.2139,4.2154,4.2152,4.2156,4.2067,4.2053,4.2157,4.2157,4.2157,4.2157,4.2157,4.2157,4.175,4.1808,4.1813,4.1882,4.1898,4.1946,4.1965,4.199,4.2011,4.2069,4.2103,4.2114,4.2137,4.218,4.2217,4.2221,4.2237,4.2255,4.2257,4.2173,4.2162,4.2151,4.2138,4.2258,4.2258,4.2343,4.2344,4.2344]},{"header":{"parameterUnit":"m.s-1","parameterCategory":1,"la1":30.2991,"la2":30.254,"lo1":-89.0895,"lo2":-89.0444,"dy":0.0017,"dx":0.0017,"nx":28,"ny":28,"refTime":"2026-02-04T03:00:00:Z","depth":0,"parameterNumber":3,"parameterNumberName":"V-component_of_WINDS"},"data":[0,0,0,0,0,0,0,0,0,0,0,0,0,0,0,0,0,0,0,0,0,0,0,0,0,0,0,0,0,0,0,0,0,0,0,0,0,0,0,0,0,0,0,0,0,0,0,0,0,0,0,0,0,0,0,0,0,0,-5.2522,-5.2524,0,-5.2655,-5.2657,-5.2658,-5.2674,-5.2673,-5.2672,-5.267,-5.2803,-5.2808,-5.2812,0,0,0,0,0,0,0,0,0,0,0,0,0,-5.228,-5.2285,-5.2522,-5.2524,-5.2525,-5.2655,-5.2657,-5.2659,-5.2674,-5.2673,-5.2671,-5.267,-5.2802,-5.2807,-5.2813,0,0,0,0,0,0,0,0,0,0,0,0,0,-5.2396,-5.2286,-5.2522,-5.2549,-5.2553,-5.2655,-5.2657,-5.2659,-5.2675,-5.2673,-5.2671,-5.2669,-5.28,-5.2807,-5.2814,-5.2897,0,0,-5.2835,-5.2839,0,0,0,0,0,0,0,0,-5.239,-5.2405,-5.2543,-5.2547,-5.2552,-5.2646,-5.262,-5.2739,-5.2675,-5.2628,-5.267,-5.2668,-5.2752,-5.2763,-5.2792,-5.2903,-5.2909,-5.2836,-5.284,-5.2843,-5.2845,0,0,0,0,0,0,0,-5.2382,-5.24,-5.2575,-5.2545,-5.255,-5.2554,-5.2568,-5.2643,-5.2699,-5.2632,-5.2634,-5.2649,-5.2754,-5.2785,-5.2796,-5.2911,-5.2836,-5.2842,-5.2847,-5.2849,-5.3098,-5.3101,0,0,0,0,0,0,-5.2369,-5.2393,-5.257,-5.2579,-5.2464,-5.256,-5.2576,-5.2618,-5.2699,-5.2709,-5.2651,-5.265,-5.2774,-5.2787,-5.28,-5.2904,-5.2843,-5.285,-5.2854,-5.3096,-5.3099,-5.3101,0,0,0,0,0,0,-5.2364,-5.2385,-5.2565,-5.2486,-5.251,-5.2566,-5.2613,-5.2621,-5.2653,-5.2713,-5.2723,-5.2673,-5.2773,-5.279,-5.2873,-5.2909,-5.2853,-5.286,-5.3093,-5.3097,-5.31,-5.3112,0,0,0,0,0,0,-5.2357,-5.2383,-5.2415,-5.2487,-5.2514,-5.2636,-5.2615,-5.2625,-5.2665,-5.2665,-5.2736,-5.2746,-5.2773,-5.2863,-5.288,-5.2918,-5.2865,-5.309,-5.3095,-5.3099,-5.3108,-5.3115,-5.3121,0,0,0,0,0,-5.2348,-5.2411,-5.2416,-5.2438,-5.2555,-5.2638,-5.2654,-5.2685,-5.2668,-5.2701,-5.274,-5.2743,-5.2902,-5.2871,-5.2891,-5.2931,-5.3088,-5.3094,-5.3099,-5.3106,-5.3114,-5.3121,0,0,0,0,0,0,-5.234,-5.2421,-5.2428,-5.2516,-5.2571,-5.2641,-5.2683,-5.2692,-5.2751,-5.2748,-5.2783,-5.2799,-5.2881,-5.2914,-5.2878,-5.3017,-5.2994,-5.3003,-5.2992,-5.3,-5.3007,-5.2996,-5.2871,0,0,0,0,0,-5.2349,-5.241,-5.2478,-5.255,-5.2577,-5.2625,-5.2663,-5.2682,-5.2739,-5.2762,-5.2807,-5.2861,-5.2924,-5.2964,-5.3025,-5.3114,-5.313,-5.3151,-5.3158,-5.3162,-5.317,-5.3221,-5.3232,-5.3119,-5.3119,-5.3119,0,0,-5.2367,-5.2419,-5.2456,-5.255,-5.2594,-5.2657,-5.2644,-5.271,-5.2757,-5.2771,-5.2853,-5.2889,-5.2952,-5.3039,-5.3079,-5.3069,-5.3205,-5.3169,-5.3173,-5.3178,-5.3228,-5.3239,-5.3248,-5.3122,-5.3122,-5.3121,0,0,-5.2433,-5.2478,-5.2544,-5.259,-5.2658,-5.269,-5.2706,-5.2776,-5.2801,-5.2884,-5.2896,-5.2952,-5.3059,-5.3104,-5.3141,-5.3227,-5.3233,-5.3246,-5.3278,-5.3328,-5.3337,-5.3345,-5.3377,-5.3387,-5.3253,-5.3253,-5.3253,0,-5.2447,-5.2542,-5.2576,-5.2644,-5.2685,-5.2703,-5.277,-5.2812,-5.2896,-5.2924,-5.2912,-5.3048,-5.3091,-5.319,-5.3212,-5.324,-5.326,-5.3237,-5.3333,-5.3342,-5.335,-5.338,-5.3392,-5.3255,-5.3254,-5.3254,-5.3254,0,-5.2557,-5.2623,-5.2668,-5.2751,-5.2797,-5.2864,-5.2908,-5.2951,-5.2968,-5.3001,-5.3087,-5.314,-5.3213,-5.3238,-5.3253,-5.334,-5.3332,-5.3326,-5.3303,-5.3361,-5.339,-5.3402,-5.3256,-5.3256,-5.3255,-5.3255,0,0,-5.2619,-5.2722,-5.2738,-5.2777,-5.2855,-5.2906,-5.2974,-5.3047,-5.3084,-5.3142,-5.32,-5.3291,-5.3288,-5.3329,-5.3351,-5.3394,-5.3461,-5.3384,-5.3386,-5.3396,-5.356,-5.3564,-5.3577,-5.3465,-5.3468,-5.347,-5.3555,0,-5.2694,-5.2816,-5.2851,-5.2954,-5.3017,-5.3036,-5.3096,-5.315,-5.3184,-5.3241,-5.3278,-5.3343,-5.3333,-5.3359,-5.3403,-5.3443,-5.3494,-5.3438,-5.352,-5.3522,-5.3503,-5.3592,-5.3596,-5.3674,-5.3567,-5.3569,-5.357,0,-5.2797,-5.2859,-5.297,-5.3042,-5.3069,-5.3122,-5.3193,-5.3248,-5.331,-5.3332,-5.3381,-5.3399,-5.3471,-5.3445,-5.3545,-5.3506,-5.3542,-5.3567,-5.3571,-5.3579,-5.3549,-5.3603,-5.3699,-5.3711,-5.3588,-5.3587,-5.3585,0,-5.2832,-5.2943,-5.3025,-5.3057,-5.3143,-5.318,-5.3217,-5.3278,-5.3321,-5.3382,-5.341,-5.3479,-5.3517,-5.357,-5.3606,-5.3584,-5.3703,-5.368,-5.3723,-5.3723,-5.3747,-5.3745,-5.385,-5.377,-5.377,-5.377,-5.3769,0,-5.2912,-5.2979,-5.3042,-5.3091,-5.3168,-5.3207,-5.328,-5.3319,-5.3373,-5.3431,-5.3451,-5.3505,-5.355,-5.3609,-5.3638,-5.3717,-5.3734,-5.3753,-5.376,-5.3752,-5.3749,-5.3775,-5.3771,-5.3773,-5.3772,-5.3772,-5.3771,0,-5.2963,-5.3008,-5.3098,-5.3173,-5.3194,-5.3247,-5.3311,-5.336,-5.3396,-5.3469,-5.3488,-5.3544,-5.3616,-5.3658,-5.3747,-5.3767,-5.3855,-5.3859,-5.3834,-5.3837,-5.3878,-5.3874,-5.4004,-5.4023,-5.393,-5.3931,-5.3931,0,-5.3011,-5.3063,-5.3145,-5.3186,-5.3225,-5.329,-5.3334,-5.3375,-5.342,-5.3497,-5.3537,-5.3611,-5.3672,-5.3785,-5.3833,-5.3903,-5.3909,-5.395,-5.3919,-5.391,-5.391,-5.3907,-5.3912,-5.3954,-5.3955,-5.3956,-5.3956,0,-5.3091,-5.3112,-5.3175,-5.3248,-5.3301,-5.3359,-5.3417,-5.3449,-5.35,-5.355,-5.3625,-5.3672,-5.3766,-5.3838,-5.3912,-5.395,-5.3962,-5.3966,-5.398,-5.3971,-5.3955,-5.3965,-5.3848,-5.3963,-5.3962,-5.3961,-5.3961,-5.3961,-5.3143,-5.3191,-5.3257,-5.3328,-5.3377,-5.3431,-5.3482,-5.3525,-5.3589,-5.3669,-5.3689,-5.3768,-5.3831,-5.3932,-5.3972,-5.4034,-5.4027,-5.4047,-5.4052,-5.4056,-5.4058,-5.3946,-5.4047,-5.4047,-5.4047,-5.4047,-5.4047,0,-5.3225,-5.3269,-5.3334,-5.3416,-5.3472,-5.3481,-5.3546,-5.3592,-5.3661,-5.372,-5.3781,-5.3867,-5.3939,-5.3994,-5.4067,-5.4106,-5.4114,-5.4124,-5.4121,-5.413,-5.4059,-5.404,-5.4117,-5.4117,-5.4117,-5.4117,-5.4117,-5.4117,-5.3274,-5.3357,-5.3385,-5.3493,-5.3537,-5.3615,-5.3652,-5.3703,-5.375,-5.3846,-5.3906,-5.3943,-5.4,-5.4079,-5.4145,-5.4159,-5.4185,-5.4195,-5.421,-5.4142,-5.4135,-5.4128,-5.411,-5.42,-5.42,-5.4276,-5.4277,-5.4277]}]]